Find Starlink 31492

NORAD ID: 59212 Int'l Des: 2024-046 Owner: SPXS Country: US Constellation: starlink operational
LEOCIRCULAR

現在のビュー

3D地球を読み込み中...

About Starlink 31492

Starlink 31492 (NORAD 59212) is a starlink constellation satellite (v2 mini) launched Mar 11, 2024 by SPXS of US. It operates in LEO, CIRCULAR orbit with a mass of 730.00 kg.

Starlink 31492について

説明を読み込み中...

次回通過

Passes for default location (London). Set your location on the main map for personalized predictions.

高度履歴

Loading altitude history...

軌道要素

1 59212U 24046M 26171.35376515 -.00000174 00000-0 62310-5 0 9997
2 59212 53.1611 38.7661 0000499 48.4820 311.6224 15.30192679128752
Epoch: Jun 20, 2026 • Age: 15 hours

現在のステータス

高度 480.8 km
速度 7.63 km/s
衛星直下点 49.84°N, 101.2°W
打ち上げ日 Mar 11, 2024
運用期間 2.2 years
タイプ internet

技術仕様

分類 Payload
質量 730.00 kg
乾燥質量 700.00 kg
総質量 730.00 kg
長さ 0.30 m
直径 4.10 m
スパン 29.00 m
形状 Box + pan
製造者 SPXS
バスタイプ Starlink V2M
フェーズステータス In Orbit
所有者/国 SPXS/US

Most Searched